Regional Weather Roundup
Issued by NWS

Home | Current Version | Previous Version | Graphics & Text | Print | Product List | Glossary On
Versions: 1 2 3 4 5 6 7 8 9 10 11 12 13 14 15 16 17 18 19 20 21 22 23 24 25 26 27 28 29 30 31 32 33 34 35 36 37 38 39 40 41 42 43 44 45 46 47 48 49 50
000
ASUS43 KBIS 290510
RWRND

NORTH DAKOTA REGIONAL WEATHER ROUNDUP
NATIONAL WEATHER SERVICE BISMARCK ND
1200 AM CDT FRI JUL 29 2016

NOTE: "FAIR" INDICATES FEW OR NO CLOUDS BELOW 12,000 FEET WITH NO
SIGNIFICANT WEATHER AND/OR OBSTRUCTIONS TO VISIBILITY.


NDZ001>003-009>011-017-290600-
NORTHWEST NORTH DAKOTA

CITY           SKY/WX    TMP DP  RH WIND       PRES   REMARKS
WILLISTON      CLOUDY    58  52  80 CALM      30.13S
MINOT          CLOUDY    64  53  67 CALM      30.12F
MINOT AFB      PTCLDY    54  51  89 SW3       30.11F
$$

NDZ018>021-031>035-040>046-290600-
SOUTHWEST NORTH DAKOTA

CITY           SKY/WX    TMP DP  RH WIND       PRES   REMARKS
BISMARCK       CLOUDY    69  56  62 N5        30.12S
DICKINSON      CLOUDY    59  57  93 E3        30.14S
GARRISON         N/A     60  56  86 N3        30.13S
HETTINGER ARPT PTCLDY    59  56  89 CALM      30.17R
$$

NDZ004>008-012>016-024-026-027-054-290600-
NORTHEAST NORTH DAKOTA

CITY           SKY/WX    TMP DP  RH WIND       PRES   REMARKS
GRAND FORKS    CLEAR     59  55  87 NW6       30.10S
GRND FRKS AFB  CLEAR     58  55  92 NW3       30.11S
DEVILS LAKE    CLEAR     61  57  87 E5        30.14S
$$

NDZ022-023-025-028>030-036>039-047>053-290600-
SOUTHEAST NORTH DAKOTA

CITY           SKY/WX    TMP DP  RH WIND       PRES   REMARKS
FARGO          CLEAR     62  58  86 N6        30.09R
JAMESTOWN      MOCLDY    63  60  90 E3        30.12R
$$





USA.gov is the U.S. government's official web portal to all federal, state and local government web resources and services.